TimeCDT,TemperatureF,Dew PointF,Humidity,Sea Level PressureIn,VisibilityMPH,Wind Direction,Wind SpeedMPH,Gust SpeedMPH,PrecipitationIn,Events,Conditions,WindDirDegrees,DateUTC
12:54 AM,33.1,19.9,59,30.24,10.0,South,8.1,-,N/A,,Clear,180,2013-04-04 05:54:00
1:54 AM,34.0,19.0,54,30.22,10.0,South,8.1,-,N/A,,Clear,180,2013-04-04 06:54:00
2:54 AM,34.0,19.9,56,30.20,10.0,SSW,9.2,-,N/A,,Clear,200,2013-04-04 07:54:00
3:54 AM,33.1,19.9,59,30.20,10.0,SW,6.9,-,N/A,,Clear,220,2013-04-04 08:54:00
4:54 AM,30.9,19.9,64,30.20,10.0,SW,8.1,-,N/A,,Clear,220,2013-04-04 09:54:00
5:54 AM,32.0,21.0,64,30.18,10.0,SW,9.2,-,N/A,,Clear,230,2013-04-04 10:54:00
6:54 AM,33.1,19.9,59,30.17,10.0,SSW,9.2,-,N/A,,Clear,210,2013-04-04 11:54:00
7:54 AM,36.0,21.0,55,30.16,10.0,SW,8.1,-,N/A,,Clear,220,2013-04-04 12:54:00
8:54 AM,41.0,21.9,47,30.16,10.0,SW,9.2,-,N/A,,Clear,220,2013-04-04 13:54:00
9:54 AM,46.0,25.0,44,30.13,10.0,WSW,10.4,-,N/A,,Clear,240,2013-04-04 14:54:00
10:54 AM,48.9,28.0,44,30.13,10.0,West,12.7,20.7,N/A,,Clear,260,2013-04-04 15:54:00
11:54 AM,53.1,30.0,41,30.11,10.0,West,12.7,-,N/A,,Clear,260,2013-04-04 16:54:00
12:54 PM,55.0,32.0,42,30.09,10.0,WSW,10.4,20.7,N/A,,Clear,250,2013-04-04 17:54:00
1:54 PM,55.0,34.0,45,30.07,10.0,WNW,15.0,20.7,N/A,,Scattered Clouds,300,2013-04-04 18:54:00
2:54 PM,55.9,35.1,45,30.06,10.0,WNW,12.7,-,N/A,,Partly Cloudy,290,2013-04-04 19:54:00
3:54 PM,57.0,36.0,45,30.05,10.0,NW,13.8,-,N/A,,Clear,320,2013-04-04 20:54:00
4:54 PM,55.9,28.9,36,30.05,10.0,NW,13.8,-,N/A,,Clear,320,2013-04-04 21:54:00
5:54 PM,55.9,32.0,40,30.04,10.0,NNW,16.1,-,N/A,,Clear,330,2013-04-04 22:54:00
6:54 PM,52.0,34.0,50,30.06,10.0,North,12.7,-,N/A,,Clear,350,2013-04-04 23:54:00
7:54 PM,46.0,33.1,61,30.07,10.0,NNW,10.4,-,N/A,,Clear,330,2013-04-05 00:54:00
8:54 PM,39.9,33.1,77,30.09,10.0,North,6.9,-,N/A,,Clear,350,2013-04-05 01:54:00
9:54 PM,37.0,30.9,79,30.10,10.0,NW,8.1,-,N/A,,Clear,320,2013-04-05 02:54:00
10:54 PM,36.0,30.0,79,30.12,10.0,NNW,8.1,-,N/A,,Partly Cloudy,340,2013-04-05 03:54:00
11:54 PM,36.0,28.9,76,30.12,10.0,NW,8.1,-,N/A,,Clear,320,2013-04-05 04:54:00